• în Republica Moldova
  • Lista ţărilor
  • Pe 7 zile
  • Temperatura apei
  • Hartă satelitară
  • Meteo pe hartă
  • Widget-uri
  • user-avatar
    Intrare

    Meteo pe oră la Prutz

    Astăzi, 29 Mai, Luni

    Timp Temperatura Precipitaţii Vânt Presiune Umiditate
    00:00 +8°C° 0 mm 1 m/s 635 mmHg 90%
    01:00 +8°C° 0 mm 1 m/s 635 mmHg 87%
    02:00 +8°C° 0 mm 1 m/s 635 mmHg 87%
    03:00 +8°C° 0 mm 1 m/s 635 mmHg 88%
    04:00 +8°C° 0 mm 1 m/s 635 mmHg 88%
    05:00 +10°C° 0 mm 1 m/s 635 mmHg 84%
    06:00 +13°C° 0 mm 1 m/s 636 mmHg 80%
    07:00 +15°C° 0 mm 1 m/s 637 mmHg 73%
    08:00 +18°C° 0 mm 1 m/s 638 mmHg 65%
    09:00 +20°C° 0 mm 1 m/s 638 mmHg 57%
    10:00 +22°C° 0 mm 1 m/s 638 mmHg 49%
    11:00 +22°C° 0 mm 1 m/s 638 mmHg 46%
    12:00 +23°C° 0 mm 1 m/s 638 mmHg 44%
    13:00 +24°C° 0 mm 1 m/s 638 mmHg 42%
    14:00 +23°C° 0,2 mm 1 m/s 638 mmHg 47%
    15:00 +22°C° 0,2 mm 1 m/s 637 mmHg 53%
    16:00 +22°C° 0,2 mm 1 m/s 637 mmHg 58%
    17:00 +20°C° 0,4 mm 1 m/s 636 mmHg 67%
    18:00 +19°C° 0,4 mm 1 m/s 636 mmHg 76%
    19:00 +16°C° 0,4 mm 1 m/s 635 mmHg 85%
    20:00 +13°C° 0,5 mm 0 m/s 635 mmHg 88%
    21:00 +11°C° 0,5 mm 0 m/s 634 mmHg 91%
    22:00 +9°C° 0,5 mm 0 m/s 634 mmHg 94%
    23:00 +9°C° 0,7 mm 0 m/s 634 mmHg 94%

    Mâine, 30 Mai, Marţi

    Timp Temperatura Precipitaţii Vânt Presiune Umiditate
    00:00 +11°C° 0,7 mm 1 m/s 634 mmHg 94%
    01:00 +11°C° 0,7 mm 1 m/s 634 mmHg 94%
    02:00 +10°C° 0,2 mm 1 m/s 634 mmHg 94%
    03:00 +10°C° 0,2 mm 1 m/s 634 mmHg 95%
    04:00 +10°C° 0,2 mm 1 m/s 634 mmHg 95%
    05:00 +10°C° 0,3 mm 0 m/s 634 mmHg 92%
    06:00 +12°C° 0,3 mm 0 m/s 635 mmHg 89%
    07:00 +14°C° 0,3 mm 0 m/s 636 mmHg 86%
    08:00 +15°C° 0,6 mm 0 m/s 636 mmHg 82%
    09:00 +19°C° 0,6 mm 1 m/s 637 mmHg 78%
    10:00 +20°C° 0,6 mm 1 m/s 637 mmHg 74%
    11:00 +20°C° 1,4 mm 1 m/s 637 mmHg 73%
    12:00 +20°C° 1,4 mm 1 m/s 637 mmHg 73%
    13:00 +21°C° 1,4 mm 1 m/s 637 mmHg 73%
    14:00 +20°C° 1,5 mm 1 m/s 637 mmHg 74%
    15:00 +20°C° 1,5 mm 1 m/s 637 mmHg 76%
    16:00 +20°C° 1,5 mm 1 m/s 636 mmHg 77%
    17:00 +18°C° 1,4 mm 1 m/s 636 mmHg 82%
    18:00 +16°C° 1,4 mm 1 m/s 636 mmHg 87%
    19:00 +15°C° 1,4 mm 1 m/s 636 mmHg 93%
    20:00 +14°C° 1,3 mm 1 m/s 636 mmHg 94%
    21:00 +12°C° 1,3 mm 1 m/s 636 mmHg 95%
    22:00 +11°C° 1,3 mm 1 m/s 636 mmHg 97%
    23:00 +11°C° 0,8 mm 1 m/s 636 mmHg 97%

    Poimâine, 31 Mai, Miercuri

    Timp Temperatura Precipitaţii Vânt Presiune Umiditate
    00:00 +11°C° 0,8 mm 1 m/s 636 mmHg 97%
    01:00 +11°C° 0,8 mm 1 m/s 636 mmHg 97%
    02:00 +10°C° 0,4 mm 1 m/s 636 mmHg 98%
    03:00 +10°C° 0,4 mm 1 m/s 636 mmHg 98%
    04:00 +8°C° 0,4 mm 0 m/s 635 mmHg 98%
    05:00 +10°C° 0,2 mm 0 m/s 636 mmHg 96%
    06:00 +11°C° 0,2 mm 0 m/s 637 mmHg 93%
    07:00 +13°C° 0,2 mm 0 m/s 637 mmHg 91%
    08:00 +14°C° 0,2 mm 0 m/s 638 mmHg 84%
    09:00 +16°C° 0,2 mm 0 m/s 638 mmHg 77%
    10:00 +19°C° 0,2 mm 1 m/s 639 mmHg 69%
    11:00 +20°C° 0,5 mm 1 m/s 639 mmHg 68%
    12:00 +20°C° 0,5 mm 1 m/s 638 mmHg 67%
    13:00 +20°C° 0,5 mm 1 m/s 638 mmHg 66%
    14:00 +20°C° 1 mm 1 m/s 638 mmHg 70%
    15:00 +19°C° 1 mm 1 m/s 638 mmHg 74%
    16:00 +19°C° 1 mm 1 m/s 637 mmHg 78%
    17:00 +18°C° 1,3 mm 1 m/s 637 mmHg 83%
    18:00 +16°C° 1,3 mm 1 m/s 637 mmHg 88%
    19:00 +15°C° 1,3 mm 1 m/s 637 mmHg 93%
    20:00 +14°C° 1,2 mm 1 m/s 637 mmHg 95%
    21:00 +11°C° 1,2 mm 0 m/s 636 mmHg 96%
    22:00 +10°C° 1,2 mm 0 m/s 636 mmHg 98%
    23:00 +10°C° 0,5 mm 0 m/s 636 mmHg 98%

    1 Iunie, Joi

    Timp Temperatura Precipitaţii Vânt Presiune Umiditate
    00:00 +10°C° 0,5 mm 0 m/s 636 mmHg 98%
    01:00 +10°C° 0,5 mm 0 m/s 636 mmHg 98%
    02:00 +9°C° 0,4 mm 0 m/s 636 mmHg 98%
    03:00 +9°C° 0,4 mm 0 m/s 635 mmHg 98%
    04:00 +8°C° 0,4 mm 0 m/s 635 mmHg 98%
    05:00 +9°C° 0,4 mm 0 m/s 636 mmHg 96%
    06:00 +11°C° 0,4 mm 0 m/s 636 mmHg 94%
    07:00 +12°C° 0,4 mm 0 m/s 637 mmHg 92%
    08:00 +13°C° 0,5 mm 0 m/s 637 mmHg 88%
    09:00 +15°C° 0,5 mm 1 m/s 638 mmHg 83%
    10:00 +16°C° 0,5 mm 1 m/s 638 mmHg 79%
    11:00 +16°C° 0,7 mm 1 m/s 638 mmHg 78%
    12:00 +18°C° 0,7 mm 1 m/s 638 mmHg 76%
    13:00 +18°C° 0,7 mm 1 m/s 638 mmHg 75%
    14:00 +18°C° 1,4 mm 1 m/s 638 mmHg 76%
    15:00 +18°C° 1,4 mm 1 m/s 638 mmHg 78%
    16:00 +18°C° 1,4 mm 1 m/s 637 mmHg 79%
    17:00 +16°C° 1,6 mm 1 m/s 637 mmHg 84%
    18:00 +15°C° 1,6 mm 1 m/s 637 mmHg 89%
    19:00 +14°C° 1,6 mm 1 m/s 637 mmHg 94%
    20:00 +13°C° 1,2 mm 1 m/s 636 mmHg 95%
    21:00 +11°C° 1,2 mm 0 m/s 636 mmHg 96%
    22:00 +10°C° 1,2 mm 0 m/s 636 mmHg 98%
    23:00 +9°C° 0,6 mm 0 m/s 636 mmHg 97%

    2 Iunie, Vineri

    Timp Temperatura Precipitaţii Vânt Presiune Umiditate
    00:00 +9°C° 0,6 mm 0 m/s 636 mmHg 97%
    01:00 +9°C° 0,6 mm 0 m/s 635 mmHg 97%
    02:00 +8°C° 0,2 mm 0 m/s 635 mmHg 97%
    03:00 +8°C° 0,2 mm 0 m/s 635 mmHg 97%
    04:00 +7°C° 0,2 mm 0 m/s 635 mmHg 97%
    05:00 +9°C° 0,1 mm 0 m/s 635 mmHg 94%
    06:00 +11°C° 0,1 mm 0 m/s 636 mmHg 92%
    07:00 +12°C° 0,1 mm 0 m/s 637 mmHg 89%
    08:00 +14°C° 0,3 mm 0 m/s 637 mmHg 84%
    09:00 +15°C° 0,3 mm 0 m/s 638 mmHg 78%
    10:00 +18°C° 0,3 mm 1 m/s 638 mmHg 73%
    11:00 +19°C° 1 mm 1 m/s 638 mmHg 74%
    12:00 +19°C° 1 mm 1 m/s 637 mmHg 74%
    13:00 +19°C° 1 mm 1 m/s 637 mmHg 75%
    14:00 +19°C° 1,5 mm 1 m/s 637 mmHg 78%
    15:00 +18°C° 1,5 mm 1 m/s 636 mmHg 81%
    16:00 +18°C° 1,5 mm 1 m/s 636 mmHg 84%
    17:00 +16°C° 1,6 mm 1 m/s 636 mmHg 87%
    18:00 +15°C° 1,6 mm 1 m/s 635 mmHg 91%
    19:00 +14°C° 1,6 mm 1 m/s 635 mmHg 94%
    20:00 +13°C° 0,6 mm 1 m/s 635 mmHg 95%
    21:00 +12°C° 0,6 mm 1 m/s 635 mmHg 95%
    22:00 +11°C° 0,6 mm 1 m/s 635 mmHg 96%
    23:00 +11°C° 0,1 mm 1 m/s 634 mmHg 96%

    3 Iunie, Sâmbătă

    Timp Temperatura Precipitaţii Vânt Presiune Umiditate
    00:00 +11°C° 0,1 mm 1 m/s 634 mmHg 96%
    01:00 +10°C° 0,1 mm 1 m/s 634 mmHg 96%
    02:00 +10°C° 0 mm 1 m/s 633 mmHg 96%
    03:00 +10°C° 0 mm 1 m/s 633 mmHg 95%
    04:00 +10°C° 0 mm 1 m/s 633 mmHg 95%
    05:00 +11°C° 0 mm 1 m/s 633 mmHg 93%
    06:00 +12°C° 0 mm 1 m/s 634 mmHg 91%
    07:00 +14°C° 0 mm 1 m/s 634 mmHg 88%
    08:00 +16°C° 0 mm 1 m/s 635 mmHg 78%
    09:00 +19°C° 0 mm 1 m/s 635 mmHg 67%
    10:00 +21°C° 0 mm 1 m/s 636 mmHg 56%
    11:00 +21°C° 0,4 mm 1 m/s 636 mmHg 58%
    12:00 +21°C° 0,4 mm 1 m/s 635 mmHg 61%
    13:00 +21°C° 0,4 mm 1 m/s 635 mmHg 63%
    14:00 +21°C° 1,2 mm 1 m/s 635 mmHg 68%
    15:00 +20°C° 1,2 mm 1 m/s 634 mmHg 72%
    16:00 +20°C° 1,2 mm 1 m/s 634 mmHg 77%
    17:00 +19°C° 1,5 mm 1 m/s 634 mmHg 82%
    18:00 +16°C° 1,5 mm 1 m/s 633 mmHg 87%
    19:00 +15°C° 1,5 mm 1 m/s 633 mmHg 93%
    20:00 +14°C° 1,4 mm 1 m/s 633 mmHg 94%
    21:00 +13°C° 1,4 mm 1 m/s 633 mmHg 96%
    22:00 +12°C° 1,4 mm 1 m/s 633 mmHg 98%
    23:00 +12°C° 0,7 mm 1 m/s 633 mmHg 98%
    Arată mai mult